Yankton, SD

10:42 AM CST on December 13, 2019 (GMT -0600)
Gurney Municipal

Weather History for KYKN - September, 2019

Change the Weather History Date:

Friday, September 13, 2019

  Actual Average Record
Temperature  
Mean Temperature 63 °F -  
Max Temperature 73 °F 76 °F 98 °F (1990)
Min Temperature 53 °F 52 °F 36 °F (1949)
Degree Days  
Heating Degree Days 2    
Growing Degree Days 13 (Base 50)    
Moisture  
Dew Point 53 °F    
Average Humidity 75    
Maximum Humidity 93    
Minimum Humidity 53    
Precipitation  
Precipitation 0.00 in - - ()
Sea Level Pressure  
Sea Level Pressure 30.13 in    
Wind  
Wind Speed 13 mph (West)    
Max Wind Speed 17 mph    
Max Gust Speed 25 mph    
Visibility 10 miles    
Events      
Averages and records for this station are not official NWS values.
T = Trace of Precipitation, MM = Missing Value Source: NWS Daily Summary

Daily Weather History Graph

Daily Weather History Graph

Search for Another Location

Airport or City:

Astronomy

Sep. 13, 2019 Rise Set
Actual Time 7:06 AM CDT 7:43 PM CDT
Civil Twilight 6:38 AM CDT 8:11 PM CDT
Nautical Twilight 6:04 AM CDT 8:45 PM CDT
Astronomical Twilight 5:29 AM CDT 9:20 PM CDT
Moon 7:59 PM CDT 6:22 AM CDT
Length of Visible Light 13h 33m
Length of Day
12h 36m
Full, 100% of the Moon is Illuminated
Sep 13
Full
Sep 13
Full
Sep 21
Last Quarter
Sep 28
New
Oct 5
First Quarter

Hourly Weather History & Observations

Time (CDT) Temp. Dew Point Humidity Pressure Visibility Wind Dir Wind Speed Gust Speed Precip Events Conditions
12:56 AM 59.0 °F 55.0 °F 87% 30.06 in 10.0 mi West 15.0 mph 21.9 mph 0.00 in   Mostly Cloudy
1:53 AM 57.2 °F 53.6 °F 88% 30.05 in 10.0 mi West 13.8 mph - N/A   Scattered Clouds
1:56 AM 57.0 °F 53.1 °F 87% 30.07 in 10.0 mi West 12.7 mph - N/A   Partly Cloudy
2:47 AM 57.2 °F 51.8 °F 82% 30.05 in 10.0 mi West 11.5 mph - N/A   Mostly Cloudy
2:56 AM 55.9 °F 52.0 °F 87% 30.07 in 10.0 mi West 15.0 mph - N/A   Scattered Clouds
3:56 AM 55.0 °F 50.0 °F 83% 30.08 in 10.0 mi West 17.3 mph 23.0 mph N/A   Partly Cloudy
4:28 AM 55.4 °F 50.0 °F 82% 30.06 in 10.0 mi West 16.1 mph 25.3 mph N/A   Mostly Cloudy
4:56 AM 54.0 °F 48.9 °F 83% 30.09 in 10.0 mi West 15.0 mph - N/A   Mostly Cloudy
5:56 AM 54.0 °F 48.9 °F 83% 30.11 in 10.0 mi West 17.3 mph - N/A   Overcast
6:20 AM 53.6 °F 48.2 °F 82% 30.08 in 10.0 mi WNW 13.8 mph - N/A   Scattered Clouds
6:56 AM 53.1 °F 48.0 °F 83% 30.13 in 10.0 mi West 15.0 mph - N/A   Clear
7:56 AM 53.1 °F 48.0 °F 83% 30.16 in 10.0 mi West 15.0 mph - N/A   Clear
8:56 AM 55.9 °F 48.9 °F 77% 30.18 in 10.0 mi West 17.3 mph 23.0 mph N/A   Mostly Cloudy
9:56 AM 57.9 °F 50.0 °F 75% 30.20 in 10.0 mi West 13.8 mph - N/A   Overcast
10:56 AM 61.0 °F 50.0 °F 67% 30.20 in 10.0 mi West 12.7 mph 21.9 mph N/A   Mostly Cloudy
11:20 AM 60.8 °F 50.0 °F 68% 30.17 in 10.0 mi West 16.1 mph - N/A   Overcast
11:52 AM 64.4 °F 51.8 °F 64% 30.17 in 10.0 mi West 12.7 mph 20.7 mph N/A   Mostly Cloudy
11:56 AM 63.0 °F 52.0 °F 67% 30.20 in 10.0 mi WSW 12.7 mph - N/A   Mostly Cloudy
12:56 PM 66.0 °F 52.0 °F 60% 30.19 in 10.0 mi West 17.3 mph - N/A   Partly Cloudy
1:56 PM 68.0 °F 54.0 °F 61% 30.17 in 10.0 mi West 15.0 mph 21.9 mph N/A   Partly Cloudy
2:56 PM 71.1 °F 54.0 °F 55% 30.15 in 10.0 mi West 13.8 mph 21.9 mph N/A   Clear
3:56 PM 72.0 °F 54.0 °F 53% 30.13 in 10.0 mi West 17.3 mph 20.7 mph N/A   Clear
4:56 PM 73.0 °F 55.0 °F 53% 30.12 in 10.0 mi West 11.5 mph 17.3 mph N/A   Clear
5:56 PM 73.0 °F 57.0 °F 57% 30.12 in 10.0 mi NW 6.9 mph - N/A   Clear
6:56 PM 71.1 °F 57.9 °F 63% 30.12 in 10.0 mi North 3.5 mph - N/A   Clear
7:56 PM 64.9 °F 57.9 °F 78% 30.13 in 10.0 mi East 3.5 mph - N/A   Clear
8:56 PM 63.0 °F 57.0 °F 81% 30.14 in 10.0 mi East 3.5 mph - N/A   Clear
9:56 PM 63.0 °F 57.0 °F 81% 30.14 in 10.0 mi ESE 5.8 mph - N/A   Clear
10:56 PM 61.0 °F 57.0 °F 87% 30.14 in 10.0 mi ESE 3.5 mph - N/A   Clear
11:56 PM 57.9 °F 55.9 °F 93% 30.14 in 7.0 mi East 3.5 mph - N/A   Mostly Cloudy